DGZAD LOWS-EDNY

Flight info

Callsign DGZAD
Flight time N/A
Altitude 8000
Route TRAUN L856 KPT KPT1F
Aircraft DA42/L-SDFGRY/C

Departure

Time 2026-04-28 18:35
Airport Salzburg Airport (LOWS)

Arrival

Time N/A
Airport Bodensee Airport Friedrichshafen (EDNY)
Time Latitude Longitude Altitude Speed Heading
2026-04-28 18:12 47.79595 12.99870 1414 ft 0 kts 66°
2026-04-28 18:27 47.79595 12.99869 1414 ft 0 kts 66°
2026-04-28 18:31 47.79595 12.99870 1414 ft 0 kts 66°
2026-04-28 18:31 47.79590 12.99885 1414 ft 5 kts 195°
2026-04-28 18:31 47.79561 12.99938 1414 ft 10 kts 72°
2026-04-28 18:31 47.79515 13.00012 1415 ft 14 kts 159°
2026-04-28 18:32 47.79425 13.00070 1415 ft 14 kts 156°
2026-04-28 18:32 47.79385 13.00163 1415 ft 7 kts 63°
2026-04-28 18:32 47.79389 13.00177 1415 ft 0 kts 68°
2026-04-28 18:33 47.79405 13.00240 1416 ft 14 kts 68°
2026-04-28 18:34 47.79456 13.00319 1418 ft 9 kts 328°
2026-04-28 18:34 47.79662 13.00185 1417 ft 61 kts 336°
2026-04-28 18:34 47.80166 12.99860 1515 ft 86 kts 336°
2026-04-28 18:34 47.80721 12.99534 1797 ft 92 kts 344°
2026-04-28 18:35 47.81368 12.99218 1989 ft 101 kts 347°
2026-04-28 18:35 47.81956 12.98909 2363 ft 85 kts 348°
2026-04-28 18:35 47.82507 12.98506 2548 ft 95 kts 325°
2026-04-28 18:35 47.82872 12.97660 2783 ft 105 kts 297°
2026-04-28 18:36 47.83145 12.96630 2992 ft 113 kts 298°
2026-04-28 18:36 47.83424 12.95525 3301 ft 113 kts 295°
2026-04-28 18:36 47.83747 12.94480 3627 ft 109 kts 303°
2026-04-28 18:36 47.84061 12.93459 3868 ft 109 kts 309°
2026-04-28 18:37 47.84479 12.92533 4140 ft 109 kts 311°
2026-04-28 18:37 47.84921 12.91576 4362 ft 113 kts 309°
2026-04-28 18:37 47.85341 12.90592 4656 ft 112 kts 307°
2026-04-28 18:37 47.85746 12.89592 4926 ft 114 kts 307°
2026-04-28 18:38 47.86153 12.88562 5215 ft 115 kts 306°
2026-04-28 18:38 47.86547 12.87551 5518 ft 115 kts 307°
2026-04-28 18:38 47.86941 12.86535 5825 ft 113 kts 307°
2026-04-28 18:38 47.87334 12.85517 6123 ft 111 kts 304°
2026-04-28 18:39 47.87719 12.84518 6429 ft 111 kts 304°
2026-04-28 18:39 47.88103 12.83523 6745 ft 111 kts 305°
2026-04-28 18:39 47.88486 12.82531 7040 ft 110 kts 304°
2026-04-28 18:39 47.88858 12.81566 7353 ft 108 kts 304°
2026-04-28 18:40 47.89230 12.80599 7655 ft 107 kts 303°
2026-04-28 18:40 47.89599 12.79642 7953 ft 106 kts 302°
2026-04-28 18:40 47.90008 12.78588 7999 ft 128 kts 303°
2026-04-28 18:40 47.90483 12.77366 7982 ft 144 kts 302°
2026-04-28 18:41 47.90994 12.76038 7984 ft 151 kts 301°
2026-04-28 18:41 47.91526 12.74648 7985 ft 156 kts 302°
2026-04-28 18:41 47.92066 12.73215 7983 ft 159 kts 301°
2026-04-28 18:41 47.92608 12.71761 7981 ft 161 kts 301°
2026-04-28 18:42 47.93148 12.70317 7983 ft 162 kts 301°
2026-04-28 18:42 47.93699 12.68845 7981 ft 163 kts 300°
2026-04-28 18:42 47.94253 12.67363 7981 ft 163 kts 301°
2026-04-28 18:42 47.94809 12.65879 7982 ft 164 kts 301°
2026-04-28 18:43 47.95366 12.64392 7986 ft 164 kts 301°
2026-04-28 18:43 47.95924 12.62897 7986 ft 166 kts 303°
2026-04-28 18:43 47.96491 12.61383 8024 ft 166 kts 302°
2026-04-28 18:43 47.97048 12.59891 8085 ft 165 kts 300°
2026-04-28 18:44 47.97371 12.58258 8088 ft 169 kts 275°
2026-04-28 18:44 47.97111 12.54733 8092 ft 173 kts 264°
2026-04-28 18:44 47.96942 12.52947 8087 ft 173 kts 263°
2026-04-28 18:45 47.96778 12.51191 8085 ft 172 kts 263°
2026-04-28 18:45 47.96613 12.49424 8083 ft 171 kts 264°
2026-04-28 18:45 47.96452 12.47669 8085 ft 170 kts 264°
2026-04-28 18:45 47.96291 12.45925 8083 ft 169 kts 263°
2026-04-28 18:46 47.96129 12.44184 8084 ft 169 kts 263°
2026-04-28 18:46 47.95966 12.42448 8075 ft 169 kts 264°
2026-04-28 18:46 47.95808 12.40734 8075 ft 168 kts 264°
2026-04-28 18:46 47.95646 12.39003 8080 ft 168 kts 264°
2026-04-28 18:47 47.95484 12.37272 8084 ft 168 kts 264°
2026-04-28 18:47 47.95322 12.35543 8084 ft 168 kts 265°
2026-04-28 18:47 47.95161 12.33817 8084 ft 168 kts 264°
2026-04-28 18:47 47.94999 12.32087 8081 ft 168 kts 264°
2026-04-28 18:48 47.94838 12.30377 8083 ft 168 kts 263°
2026-04-28 18:48 47.94673 12.28642 8074 ft 169 kts 264°
2026-04-28 18:48 47.94509 12.26905 8067 ft 169 kts 264°
2026-04-28 18:48 47.94346 12.25170 8074 ft 169 kts 264°
2026-04-28 18:49 47.94182 12.23435 8077 ft 168 kts 264°
2026-04-28 18:49 47.94074 12.22289 8076 ft 168 kts 263°
2026-04-28 18:49 47.93855 12.20000 8077 ft 168 kts 263°
2026-04-28 18:49 47.93689 12.18269 8073 ft 168 kts 263°
2026-04-28 18:50 47.93522 12.16536 8078 ft 169 kts 263°
2026-04-28 18:50 47.93354 12.14802 8078 ft 169 kts 264°
2026-04-28 18:50 47.93186 12.13066 8074 ft 169 kts 264°
2026-04-28 18:50 47.93019 12.11335 8078 ft 169 kts 264°
2026-04-28 18:51 47.92853 12.09624 8072 ft 168 kts 263°
2026-04-28 18:51 47.92684 12.07892 8071 ft 168 kts 263°
2026-04-28 18:51 47.92515 12.06161 8070 ft 168 kts 264°
2026-04-28 18:51 47.92347 12.04430 8072 ft 169 kts 264°
2026-04-28 18:52 47.92178 12.02695 8060 ft 169 kts 264°
2026-04-28 18:52 47.92009 12.00965 8064 ft 169 kts 264°
2026-04-28 18:52 47.91841 11.99258 8065 ft 168 kts 263°
2026-04-28 18:52 47.91671 11.97530 8066 ft 168 kts 264°
2026-04-28 18:53 47.91502 11.95801 8065 ft 168 kts 263°
2026-04-28 18:53 47.91331 11.94073 8069 ft 168 kts 263°
2026-04-28 18:53 47.91162 11.92365 8064 ft 169 kts 264°
2026-04-28 18:53 47.90990 11.90618 8063 ft 171 kts 263°
2026-04-28 18:54 47.90816 11.88852 8059 ft 172 kts 263°
2026-04-28 18:54 47.90640 11.87084 8058 ft 173 kts 263°
2026-04-28 18:54 47.90466 11.85326 8053 ft 172 kts 263°
2026-04-28 18:54 47.90291 11.83561 8056 ft 172 kts 263°
2026-04-28 18:55 47.90115 11.81795 8059 ft 172 kts 263°
2026-04-28 18:55 47.89998 11.80629 8060 ft 172 kts 263°
2026-04-28 18:55 47.89763 11.78261 8061 ft 173 kts 263°
2026-04-28 18:55 47.89587 11.76485 8055 ft 174 kts 263°
2026-04-28 18:56 47.89412 11.74707 8055 ft 174 kts 263°
2026-04-28 18:56 47.89234 11.72921 8059 ft 174 kts 263°
2026-04-28 18:56 47.89059 11.71165 8060 ft 174 kts 263°
2026-04-28 18:56 47.88881 11.69379 8058 ft 174 kts 264°
2026-04-28 18:57 47.88702 11.67582 8061 ft 175 kts 264°
2026-04-28 18:57 47.88522 11.65789 8053 ft 175 kts 264°
2026-04-28 18:57 47.88345 11.64009 8061 ft 175 kts 263°
2026-04-28 18:57 47.88163 11.62208 8062 ft 175 kts 263°
2026-04-28 18:58 47.87987 11.60456 8059 ft 174 kts 263°
2026-04-28 18:58 47.87810 11.58695 8062 ft 174 kts 263°
2026-04-28 18:58 47.87630 11.56913 8057 ft 174 kts 263°
2026-04-28 18:58 47.87450 11.55129 8067 ft 174 kts 263°
2026-04-28 18:59 47.87273 11.53366 8068 ft 174 kts 262°
2026-04-28 18:59 47.87092 11.51589 8069 ft 173 kts 263°
2026-04-28 18:59 47.86911 11.49810 8070 ft 173 kts 263°
2026-04-28 18:59 47.86730 11.48028 8071 ft 174 kts 263°
2026-04-28 19:00 47.86550 11.46247 8065 ft 173 kts 263°
2026-04-28 19:00 47.86367 11.44472 8071 ft 173 kts 264°
2026-04-28 19:00 47.86188 11.42714 8069 ft 170 kts 264°
2026-04-28 19:00 47.86012 11.40982 8072 ft 169 kts 263°
2026-04-28 19:01 47.85837 11.39276 8075 ft 168 kts 263°
2026-04-28 19:01 47.85659 11.37556 8078 ft 168 kts 263°
2026-04-28 19:01 47.85484 11.35844 8073 ft 167 kts 263°
2026-04-28 19:01 47.85308 11.34129 8077 ft 167 kts 263°
2026-04-28 19:02 47.85131 11.32421 8079 ft 166 kts 264°
2026-04-28 19:02 47.84958 11.30743 8079 ft 166 kts 264°
2026-04-28 19:02 47.84782 11.29039 8080 ft 166 kts 263°
2026-04-28 19:02 47.84605 11.27333 8074 ft 166 kts 263°
2026-04-28 19:03 47.84428 11.25629 8077 ft 167 kts 263°
2026-04-28 19:03 47.84250 11.23919 8073 ft 167 kts 263°
2026-04-28 19:03 47.84072 11.22208 8071 ft 167 kts 264°
2026-04-28 19:03 47.83897 11.20521 8077 ft 167 kts 263°
2026-04-28 19:04 47.83718 11.18809 8078 ft 167 kts 263°
2026-04-28 19:04 47.83539 11.17101 8075 ft 167 kts 262°
2026-04-28 19:04 47.83360 11.15393 8083 ft 167 kts 262°
2026-04-28 19:04 47.83183 11.13706 8085 ft 167 kts 262°
2026-04-28 19:05 47.83004 11.11999 8089 ft 167 kts 263°
2026-04-28 19:05 47.82823 11.10285 8091 ft 167 kts 262°
2026-04-28 19:05 47.82642 11.08573 8092 ft 168 kts 263°
2026-04-28 19:05 47.82461 11.06860 8089 ft 168 kts 263°
2026-04-28 19:06 47.82278 11.05139 8096 ft 168 kts 262°
2026-04-28 19:06 47.82156 11.04003 8093 ft 168 kts 262°
2026-04-28 19:06 47.81910 11.01707 8096 ft 169 kts 263°
2026-04-28 19:06 47.81726 10.99975 8098 ft 170 kts 263°
2026-04-28 19:07 47.81541 10.98247 8102 ft 171 kts 262°
2026-04-28 19:07 47.81352 10.96487 8099 ft 172 kts 262°
2026-04-28 19:07 47.81163 10.94731 8066 ft 172 kts 262°
2026-04-28 19:07 47.80974 10.92970 8065 ft 172 kts 262°
2026-04-28 19:08 47.80785 10.91213 8063 ft 172 kts 262°
2026-04-28 19:08 47.80597 10.89477 8062 ft 172 kts 262°
2026-04-28 19:08 47.80406 10.87712 8063 ft 173 kts 263°
2026-04-28 19:08 47.80215 10.85940 8059 ft 173 kts 262°
2026-04-28 19:09 47.80023 10.84174 8068 ft 173 kts 262°
2026-04-28 19:09 47.79831 10.82405 8067 ft 173 kts 262°
2026-04-28 19:09 47.79640 10.80641 8064 ft 172 kts 262°
2026-04-28 19:09 47.79448 10.78888 8061 ft 172 kts 262°
2026-04-28 19:10 47.79260 10.77157 8068 ft 171 kts 262°
2026-04-28 19:10 47.79068 10.75399 8066 ft 172 kts 262°
2026-04-28 19:10 47.78876 10.73642 8062 ft 172 kts 262°
2026-04-28 19:10 47.78683 10.71879 8068 ft 173 kts 262°
2026-04-28 19:11 47.78490 10.70120 8065 ft 172 kts 262°
2026-04-28 19:11 47.78296 10.68357 8066 ft 173 kts 262°
2026-04-28 19:11 47.78101 10.66587 8066 ft 174 kts 263°
2026-04-28 19:11 47.77906 10.64814 8065 ft 174 kts 262°
2026-04-28 19:12 47.77713 10.63059 8065 ft 174 kts 262°
2026-04-28 19:12 47.77517 10.61279 8065 ft 174 kts 262°
2026-04-28 19:12 47.77319 10.59504 8060 ft 174 kts 262°
2026-04-28 19:12 47.77124 10.57737 8066 ft 173 kts 261°
2026-04-28 19:13 47.76927 10.55962 8071 ft 174 kts 262°
2026-04-28 19:13 47.76729 10.54186 8065 ft 175 kts 262°
2026-04-28 19:13 47.76534 10.52423 8070 ft 175 kts 261°
2026-04-28 19:13 47.76335 10.50641 8069 ft 174 kts 261°
2026-04-28 19:14 47.76136 10.48864 8061 ft 174 kts 261°
2026-04-28 19:14 47.75938 10.47089 8061 ft 174 kts 261°
2026-04-28 19:14 47.75739 10.45310 8063 ft 174 kts 261°
2026-04-28 19:14 47.75539 10.43528 8064 ft 175 kts 261°
2026-04-28 19:15 47.75338 10.41740 8061 ft 175 kts 261°
2026-04-28 19:15 47.75140 10.39976 8065 ft 174 kts 261°
2026-04-28 19:15 47.74941 10.38209 8065 ft 173 kts 261°
2026-04-28 19:15 47.74874 10.37613 8065 ft 172 kts 261°
2026-04-28 19:16 47.74576 10.34691 8064 ft 171 kts 269°
2026-04-28 19:16 47.74548 10.32923 8067 ft 171 kts 270°
2026-04-28 19:16 47.74527 10.31147 8061 ft 172 kts 270°
2026-04-28 19:16 47.74504 10.29389 8062 ft 172 kts 270°
2026-04-28 19:17 47.74480 10.27616 8062 ft 172 kts 270°
2026-04-28 19:17 47.74456 10.25839 8061 ft 172 kts 270°
2026-04-28 19:17 47.74440 10.24662 8062 ft 172 kts 269°
2026-04-28 19:17 47.74415 10.22889 8062 ft 171 kts 270°
2026-04-28 19:18 47.74390 10.21118 8062 ft 171 kts 270°
2026-04-28 19:18 47.74365 10.19348 8062 ft 171 kts 270°
2026-04-28 19:18 47.74340 10.17585 8060 ft 171 kts 270°
2026-04-28 19:18 47.74315 10.15819 8062 ft 171 kts 270°
2026-04-28 19:19 47.74289 10.14050 8058 ft 171 kts 269°
2026-04-28 19:19 47.74263 10.12311 8057 ft 170 kts 269°
2026-04-28 19:19 47.74237 10.10551 8057 ft 170 kts 269°
2026-04-28 19:19 47.74211 10.08799 8057 ft 169 kts 269°
2026-04-28 19:20 47.74184 10.07047 8059 ft 169 kts 269°
2026-04-28 19:20 47.74157 10.05298 8060 ft 169 kts 269°
2026-04-28 19:20 47.74130 10.03572 8060 ft 169 kts 269°
2026-04-28 19:20 47.74103 10.01821 8061 ft 169 kts 269°
2026-04-28 19:21 47.74075 10.00065 8061 ft 170 kts 269°
2026-04-28 19:21 47.74047 9.98309 8061 ft 170 kts 269°
2026-04-28 19:21 47.74019 9.96557 8059 ft 170 kts 269°
2026-04-28 19:21 47.73991 9.94827 8060 ft 169 kts 269°
2026-04-28 19:22 47.73962 9.93079 8060 ft 169 kts 269°
2026-04-28 19:22 47.73898 9.91901 8060 ft 170 kts 262°
2026-04-28 19:22 47.73581 9.89608 7960 ft 175 kts 258°
2026-04-28 19:22 47.73336 9.87814 7761 ft 179 kts 259°
2026-04-28 19:23 47.73102 9.85984 7563 ft 181 kts 259°
2026-04-28 19:23 47.72870 9.84131 7366 ft 183 kts 259°
2026-04-28 19:23 47.72638 9.82290 7166 ft 183 kts 259°
2026-04-28 19:23 47.72403 9.80427 6975 ft 184 kts 259°
2026-04-28 19:24 47.72165 9.78545 6755 ft 187 kts 259°
2026-04-28 19:24 47.71924 9.76632 6519 ft 189 kts 259°
2026-04-28 19:24 47.71679 9.74707 6264 ft 190 kts 259°
2026-04-28 19:24 47.71438 9.72801 6015 ft 189 kts 259°
2026-04-28 19:25 47.71192 9.70876 5759 ft 190 kts 259°
2026-04-28 19:25 47.70946 9.68944 5509 ft 191 kts 259°
2026-04-28 19:25 47.70699 9.67000 5258 ft 192 kts 259°
2026-04-28 19:25 47.70451 9.65057 5018 ft 191 kts 259°
2026-04-28 19:26 47.70208 9.63161 5000 ft 183 kts 259°
2026-04-28 19:26 47.69974 9.61341 5000 ft 180 kts 259°
2026-04-28 19:26 47.69741 9.59520 4997 ft 178 kts 259°
2026-04-28 19:26 47.69511 9.57723 4996 ft 176 kts 259°
2026-04-28 19:27 47.69283 9.55944 4999 ft 175 kts 259°
2026-04-28 19:27 47.69057 9.54194 4997 ft 174 kts 259°
2026-04-28 19:27 47.68830 9.52429 4998 ft 174 kts 259°
2026-04-28 19:27 47.68602 9.50655 4998 ft 175 kts 259°
2026-04-28 19:28 47.68372 9.48879 4998 ft 175 kts 259°
2026-04-28 19:28 47.68143 9.47102 4998 ft 174 kts 259°
2026-04-28 19:28 47.67913 9.45328 4999 ft 175 kts 259°
2026-04-28 19:28 47.67686 9.43574 4997 ft 175 kts 259°
2026-04-28 19:29 47.67457 9.41807 4998 ft 174 kts 259°
2026-04-28 19:29 47.67305 9.40638 4998 ft 174 kts 259°
2026-04-28 19:29 47.66998 9.38277 4997 ft 174 kts 258°
2026-04-28 19:29 47.66767 9.36511 4983 ft 174 kts 259°
2026-04-28 19:30 47.66536 9.34738 4978 ft 175 kts 259°
2026-04-28 19:30 47.66306 9.32973 4977 ft 174 kts 258°
2026-04-28 19:30 47.66077 9.31226 4979 ft 174 kts 259°
2026-04-28 19:30 47.65845 9.29455 4979 ft 175 kts 259°
2026-04-28 19:31 47.65613 9.27680 4978 ft 175 kts 259°
2026-04-28 19:31 47.65379 9.25901 4975 ft 176 kts 259°
2026-04-28 19:31 47.65144 9.24114 4974 ft 176 kts 258°
2026-04-28 19:31 47.64909 9.22327 4975 ft 176 kts 258°
2026-04-28 19:32 47.64502 9.20652 4968 ft 175 kts 232°
2026-04-28 19:32 47.63552 9.19643 4975 ft 168 kts 193°
2026-04-28 19:32 47.62417 9.19740 4826 ft 167 kts 154°
2026-04-28 19:32 47.61397 9.20587 4574 ft 169 kts 144°
2026-04-28 19:33 47.60400 9.21551 4319 ft 172 kts 144°
2026-04-28 19:33 47.59398 9.22544 4068 ft 173 kts 141°
2026-04-28 19:33 47.58760 9.23961 3986 ft 162 kts 103°
2026-04-28 19:33 47.58607 9.25564 3989 ft 154 kts 94°
2026-04-28 19:34 47.58520 9.27094 3990 ft 149 kts 94°
2026-04-28 19:34 47.58438 9.28616 3989 ft 146 kts 94°
2026-04-28 19:34 47.58569 9.30072 3979 ft 144 kts 61°
2026-04-28 19:34 47.59240 9.31169 3980 ft 143 kts 53°
2026-04-28 19:35 47.59751 9.32425 3983 ft 142 kts 66°
2026-04-28 19:35 47.60051 9.33815 3983 ft 141 kts 78°
2026-04-28 19:35 47.60124 9.35263 3982 ft 141 kts 91°
2026-04-28 19:35 47.59848 9.36611 3977 ft 143 kts 127°
2026-04-28 19:36 47.58978 9.37291 3985 ft 147 kts 172°
2026-04-28 19:36 47.57949 9.37237 3987 ft 148 kts 182°
2026-04-28 19:36 47.56918 9.37092 3989 ft 149 kts 183°
2026-04-28 19:36 47.55887 9.36937 3989 ft 149 kts 184°
2026-04-28 19:37 47.54860 9.36741 3980 ft 150 kts 195°
2026-04-28 19:37 47.54274 9.36197 3982 ft 152 kts 226°
2026-04-28 19:37 47.53881 9.34262 3994 ft 152 kts 271°
2026-04-28 19:37 47.53913 9.32688 3987 ft 153 kts 273°
2026-04-28 19:38 47.54001 9.31132 3981 ft 150 kts 288°
2026-04-28 19:38 47.54612 9.29985 3986 ft 141 kts 334°
2026-04-28 19:38 47.55558 9.29592 3992 ft 143 kts 352°
2026-04-28 19:38 47.56544 9.29351 3994 ft 147 kts 353°
2026-04-28 19:39 47.57553 9.29359 3984 ft 146 kts 22°
2026-04-28 19:39 47.58418 9.30129 3993 ft 144 kts 41°
2026-04-28 19:39 47.59162 9.31068 3989 ft 137 kts 47°
2026-04-28 19:39 47.59711 9.32191 3988 ft 133 kts 58°
2026-04-28 19:40 47.60195 9.33341 3957 ft 131 kts 59°
2026-04-28 19:40 47.60668 9.34511 3787 ft 135 kts 59°
2026-04-28 19:40 47.61143 9.35713 3604 ft 135 kts 60°
2026-04-28 19:40 47.61608 9.36911 3424 ft 133 kts 60°
2026-04-28 19:41 47.62068 9.38097 3254 ft 132 kts 60°
2026-04-28 19:41 47.62523 9.39271 3072 ft 131 kts 60°
2026-04-28 19:41 47.62974 9.40435 2891 ft 128 kts 61°
2026-04-28 19:41 47.63403 9.41541 2723 ft 123 kts 62°
2026-04-28 19:42 47.63826 9.42633 2550 ft 121 kts 62°